Location: Newark
(26.8229°N, 81.7649°W)
Time: 00:04:34
(UTC+00:00)

N. Korean satellite - Visible Passes

Search period start: 20 January 2020 00:00
Search period end: 30 January 2020 00:00
Orbit: 454 x 508 km, 97.2° (Epoch: 19 January)

Date Brightness Start Highest point End Pass type
(mag) Time Alt. Az. Time Alt. Az. Time Alt. Az.
20 Jan 6.5 11:06:50 10° NNE 11:10:23 87° E 11:13:59 10° S visible
21 Jan 8.4 10:41:39 10° NNE 10:44:54 33° E 10:48:11 10° SSE visible
22 Jan 9.8 10:17:20 10° ENE 10:19:21 14° E 10:21:23 10° SE visible
22 Jan 7.9 11:49:54 10° NNW 11:52:36 20° WNW 11:55:20 10° WSW visible
23 Jan 6.7 11:23:46 10° N 11:27:13 49° WNW 11:30:44 10° SSW visible
23 Jan 9.8 23:26:16 10° SW 23:28:26 16° W 23:30:35 10° WNW visible
24 Jan 7.0 10:58:13 10° NNE 11:01:47 63° E 11:05:23 10° S visible
25 Jan 8.9 10:33:15 10° NE 10:36:16 25° E 10:39:20 10° SSE visible
26 Jan 10.2 10:09:41 10° ENE 10:10:42 11° E 10:11:44 10° ESE visible
26 Jan 7.5 11:40:57 10° NNW 11:44:02 27° WNW 11:47:09 10° SW visible
27 Jan 6.5 11:15:02 10° N 11:18:38 68° WNW 11:22:16 10° SSW visible
28 Jan 7.7 10:49:39 10° NNE 10:53:09 46° E 10:56:42 10° S visible
29 Jan 9.4 10:24:56 10° NE 10:27:37 19° E 10:30:20 10° SE visible
